TimeEST,TemperatureF,Dew PointF,Humidity,Sea Level PressureIn,VisibilityMPH,Wind Direction,Wind SpeedMPH,Gust SpeedMPH,PrecipitationIn,Events,Conditions,WindDirDegrees,DateUTC
12:15 AM,27.1,16.0,63,29.66,10.0,WNW,11.5,21.9,N/A,,Overcast,290,2012-11-25 05:15:00
12:35 AM,27.1,16.5,64,29.66,10.0,West,9.2,21.9,N/A,,Overcast,270,2012-11-25 05:35:00
12:55 AM,27.1,16.5,64,29.67,10.0,WNW,10.4,21.9,N/A,,Overcast,290,2012-11-25 05:55:00
1:15 AM,27.1,15.8,62,29.67,10.0,West,10.4,29.9,N/A,,Overcast,280,2012-11-25 06:15:00
1:35 AM,27.1,15.6,62,29.68,10.0,West,16.1,21.9,N/A,,Overcast,280,2012-11-25 06:35:00
1:55 AM,27.1,15.8,62,29.69,10.0,West,10.4,18.4,N/A,,Overcast,280,2012-11-25 06:55:00
2:15 AM,27.1,15.8,62,29.69,10.0,West,11.5,26.5,N/A,,Mostly Cloudy,280,2012-11-25 07:15:00
2:35 AM,26.4,15.4,63,29.70,10.0,West,12.7,24.2,N/A,,Scattered Clouds,280,2012-11-25 07:35:00
2:55 AM,24.6,13.1,62,29.71,10.0,West,10.4,19.6,N/A,,Clear,280,2012-11-25 07:55:00
3:15 AM,24.6,13.1,62,29.71,10.0,West,11.5,21.9,N/A,,Scattered Clouds,280,2012-11-25 08:15:00
3:35 AM,24.6,13.5,63,29.71,10.0,West,11.5,20.7,N/A,,Scattered Clouds,270,2012-11-25 08:35:00
3:55 AM,24.6,13.5,63,29.71,10.0,WNW,10.4,18.4,N/A,,Clear,290,2012-11-25 08:55:00
4:15 AM,24.6,13.1,62,29.72,10.0,West,12.7,24.2,N/A,,Clear,280,2012-11-25 09:15:00
4:35 AM,24.6,12.9,61,29.73,10.0,West,9.2,18.4,N/A,,Clear,280,2012-11-25 09:35:00
4:55 AM,24.6,12.9,61,29.73,10.0,West,9.2,20.7,N/A,,Scattered Clouds,280,2012-11-25 09:55:00
5:15 AM,24.6,12.9,61,29.73,10.0,West,12.7,18.4,N/A,,Clear,280,2012-11-25 10:15:00
5:35 AM,24.6,13.1,62,29.74,10.0,West,8.1,19.6,N/A,,Scattered Clouds,280,2012-11-25 10:35:00
5:55 AM,24.6,12.7,61,29.74,10.0,West,9.2,17.3,N/A,,Mostly Cloudy,280,2012-11-25 10:55:00
6:15 AM,24.6,12.9,61,29.74,10.0,West,5.8,17.3,N/A,,Overcast,270,2012-11-25 11:15:00
6:35 AM,24.6,13.5,63,29.74,10.0,WNW,10.4,17.3,N/A,,Mostly Cloudy,290,2012-11-25 11:35:00
6:55 AM,24.6,13.6,63,29.74,10.0,West,5.8,19.6,N/A,,Scattered Clouds,280,2012-11-25 11:55:00
7:15 AM,23.4,13.3,65,29.74,10.0,WNW,8.1,-,N/A,,Scattered Clouds,290,2012-11-25 12:15:00
7:35 AM,24.6,13.6,63,29.75,10.0,West,6.9,19.6,N/A,,Mostly Cloudy,270,2012-11-25 12:35:00
7:55 AM,24.6,13.1,62,29.76,10.0,West,9.2,16.1,N/A,,Overcast,270,2012-11-25 12:55:00
8:15 AM,24.6,13.1,62,29.76,10.0,West,9.2,17.3,N/A,,Overcast,270,2012-11-25 13:15:00
8:35 AM,24.6,13.1,62,29.76,10.0,West,9.2,21.9,N/A,,Mostly Cloudy,260,2012-11-25 13:35:00
8:55 AM,24.4,13.1,62,29.76,10.0,West,11.5,18.4,N/A,,Mostly Cloudy,260,2012-11-25 13:55:00
9:15 AM,24.6,12.6,60,29.75,10.0,West,9.2,18.4,N/A,,Scattered Clouds,260,2012-11-25 14:15:00
9:35 AM,25.5,13.1,59,29.76,10.0,West,9.2,19.6,N/A,,Scattered Clouds,270,2012-11-25 14:35:00
9:55 AM,27.1,14.4,59,29.75,10.0,West,12.7,23.0,N/A,,Scattered Clouds,270,2012-11-25 14:55:00
10:15 AM,27.1,12.9,55,29.76,10.0,West,9.2,18.4,N/A,,Scattered Clouds,260,2012-11-25 15:15:00
10:35 AM,27.3,12.2,53,29.75,10.0,West,10.4,16.1,N/A,,Scattered Clouds,270,2012-11-25 15:35:00
10:55 AM,27.3,12.0,53,29.75,10.0,West,11.5,20.7,N/A,,Scattered Clouds,260,2012-11-25 15:55:00
11:15 AM,28.4,11.5,49,29.74,10.0,West,8.1,19.6,N/A,,Mostly Cloudy,270,2012-11-25 16:15:00
11:35 AM,27.3,10.4,49,29.73,10.0,West,10.4,19.6,N/A,,Scattered Clouds,260,2012-11-25 16:35:00
11:55 AM,28.0,10.2,47,29.72,10.0,WNW,8.1,16.1,N/A,,Mostly Cloudy,290,2012-11-25 16:55:00
12:15 PM,29.8,11.3,46,29.72,10.0,West,9.2,16.1,N/A,,Scattered Clouds,270,2012-11-25 17:15:00
12:35 PM,27.3,9.0,46,29.72,10.0,West,5.8,20.7,N/A,,Scattered Clouds,270,2012-11-25 17:35:00
12:55 PM,30.0,10.8,45,29.72,10.0,West,11.5,16.1,N/A,,Scattered Clouds,280,2012-11-25 17:55:00
1:15 PM,30.9,10.6,43,29.71,10.0,West,10.4,17.3,N/A,,Scattered Clouds,260,2012-11-25 18:15:00
1:35 PM,29.7,9.5,43,29.71,10.0,West,12.7,18.4,N/A,,Scattered Clouds,270,2012-11-25 18:35:00
1:55 PM,31.8,10.8,42,29.71,10.0,West,10.4,20.7,N/A,,Scattered Clouds,260,2012-11-25 18:55:00
2:15 PM,32.0,10.8,41,29.71,10.0,West,10.4,17.3,N/A,,Scattered Clouds,280,2012-11-25 19:15:00
2:35 PM,29.8,8.6,41,29.71,10.0,West,10.4,19.6,N/A,,Scattered Clouds,260,2012-11-25 19:35:00
2:55 PM,29.5,9.1,43,29.71,10.0,West,6.9,19.6,N/A,,Clear,270,2012-11-25 19:55:00
3:15 PM,29.7,10.0,44,29.72,10.0,West,9.2,-,N/A,,Clear,270,2012-11-25 20:15:00
3:35 PM,29.7,10.6,45,29.72,10.0,West,9.2,17.3,N/A,,Clear,270,2012-11-25 20:35:00
3:55 PM,28.2,9.7,46,29.72,10.0,West,9.2,18.4,N/A,,Clear,270,2012-11-25 20:55:00
4:15 PM,27.1,10.2,49,29.72,10.0,West,8.1,-,N/A,,Clear,280,2012-11-25 21:15:00
4:35 PM,27.1,10.8,50,29.72,10.0,West,4.6,-,N/A,,Clear,270,2012-11-25 21:35:00
4:55 PM,27.1,11.8,53,29.73,10.0,West,3.5,-,N/A,,Clear,280,2012-11-25 21:55:00
5:15 PM,27.1,12.6,54,29.74,10.0,WNW,3.5,-,N/A,,Clear,290,2012-11-25 22:15:00
5:35 PM,26.1,12.2,56,29.74,10.0,Calm,Calm,-,N/A,,Clear,0,2012-11-25 22:35:00
5:55 PM,24.6,11.5,57,29.75,10.0,Calm,Calm,-,N/A,,Clear,0,2012-11-25 22:55:00
6:15 PM,24.6,12.0,59,29.76,10.0,Calm,Calm,-,N/A,,Clear,0,2012-11-25 23:15:00
6:35 PM,24.4,12.2,60,29.76,10.0,Calm,Calm,-,N/A,,Clear,0,2012-11-25 23:35:00
6:55 PM,23.9,11.8,60,29.77,10.0,Calm,Calm,-,N/A,,Clear,0,2012-11-25 23:55:00
7:15 PM,23.9,12.0,61,29.77,10.0,Calm,Calm,-,N/A,,Clear,0,2012-11-26 00:15:00
7:35 PM,22.1,11.1,63,29.78,10.0,Calm,Calm,-,N/A,,Clear,0,2012-11-26 00:35:00
7:55 PM,20.1,10.9,68,29.78,10.0,Calm,Calm,-,N/A,,Clear,0,2012-11-26 00:55:00
8:15 PM,17.8,10.2,72,29.78,10.0,Calm,Calm,-,N/A,,Clear,0,2012-11-26 01:15:00
8:35 PM,19.4,12.0,73,29.79,10.0,Calm,Calm,-,N/A,,Clear,0,2012-11-26 01:35:00
8:55 PM,21.9,12.2,66,29.79,10.0,Calm,Calm,-,N/A,,Scattered Clouds,0,2012-11-26 01:55:00
9:15 PM,22.8,12.2,64,29.79,10.0,West,3.5,-,N/A,,Scattered Clouds,270,2012-11-26 02:15:00
9:35 PM,24.4,13.3,63,29.80,10.0,West,3.5,-,N/A,,Scattered Clouds,260,2012-11-26 02:35:00
9:55 PM,24.6,13.5,63,29.80,10.0,Calm,Calm,-,N/A,,Mostly Cloudy,0,2012-11-26 02:55:00
10:15 PM,24.6,13.3,62,29.80,10.0,Calm,Calm,-,N/A,,Overcast,0,2012-11-26 03:15:00
10:35 PM,24.8,13.5,62,29.79,10.0,Calm,Calm,-,N/A,,Overcast,0,2012-11-26 03:35:00
10:55 PM,25.5,13.8,61,29.79,10.0,Calm,Calm,-,N/A,,Overcast,0,2012-11-26 03:55:00
11:15 PM,27.0,14.9,60,29.80,10.0,Calm,Calm,-,N/A,,Overcast,0,2012-11-26 04:15:00
11:35 PM,27.0,14.7,60,29.81,10.0,West,3.5,-,N/A,,Overcast,280,2012-11-26 04:35:00
11:55 PM,27.0,14.7,60,29.81,10.0,Calm,Calm,-,N/A,,Overcast,0,2012-11-26 04:55:00